DELTA 1 DEB, 42562

Orbit data source: Space-Track

DELTA 1 DEB, 42562 is space debris in SSO originally from a launch on Sun, 23 Jul 1972 UTC launched from the Air Force Western Test Range (AFWTR). Debris objects in space refer to the collection of defunct objects orbiting the Earth. Examples of debris include non-operational satellites, rocket bodies, and fragments generated from explosions, collisions, or faulty payload assembly.

Loading next visibility...
Identifier
42562, 1972-058JV
Orbit
SSO
Country
Flag of USUS
Related business
Manufacturer
Unknown
Mission
Spacecraft
Bus & Motor
Unknown
Mass
Unknown
Launch date (UTC)
1972-07-23 (53 years ago)
Launch vehicle
Unknown
Launch site
Air Force Western Test Range (AFWTR)
Object type
Payload
Rocket body
Debris
Shape & HBR
Unknown shape, 0.1 m
Radar Cross Section
Small (<0.1 m²)

Expand to show TLE details & history
Last TLE update: 3 days ago

TLE from 3 days ago
0 DELTA 1 DEB
1 42562U 72058JV  25297.80284767  .00001151  00000-0  24222-3 0  9991
2 42562  98.8284 128.8229 0153684  15.7890 344.8020 14.54602555630871
Epoch: 2025-10-24T19:16Z
TLE epoch observation values (Epoch: 2025-10-24T19:16:06.038Z)
Latitude
-0.00002°
Longitude
166.35523°
Altitude
608.577 km
Speed
7.611 km/s
True Right ascension
08h 35m 17s
True Declination
0° 00' 00"
Sunlit
Object was in daylight at epoch
Visualization orbit readout
Latitude
Unknown
Longitude
Unknown
Altitude
Unknown
Speed
Unknown
Apparent Right ascension
Unknown
Apparent Declination
Unknown
Sunlit
N/A
Visualization observer readout
Local Sidereal Time
05:38:27
Azimuth
Unknown
Elevation
Unknown
Doppler factor
Unknown
Orbital elements
Apogee altitude
816.672 km
Perigee altitude
598.874 km
Semi-major axis
7,085.91 km
Eccentricity
0.01537
Inclination
98.8284°
RAAN
128.8229°
Arg. of periapsis
15.789°
True anomaly
344.33161°
Mean anomaly
344.802°
Eccentric anomaly
344.56769°
Mean motion
3.63873 °/min
Orbital period
98.94 mins
BSTAR
0.00024222
Loading maneuver chart data...
Computing Atmospheric mass density...
Loading historical data...
Loading historical data...
Loading historical data...
Loading historical data...
Loading historical data...
Loading historical data...
Loading historical data...

Documentation

Showing up to 5 results
|